Location: Emblem
(62.4273°N, 6.4710°E)
Time: 15:19:23
(UTC+02:00)

Altair - Pass Details

Date: 13 February 2023
Orbit: 1501 x 1682 km, 47.2° (Epoch: 31 March)

Event Time Altitude Azimuth Distance (km) Brightness Sun altitude
Rises 19:41:17 0° 244° (WSW) 4,738 11.1 -17.8°
Reaches altitude 10° 19:44:42 10° 235° (SW) 3,781 10.2 -18.2°
Maximum altitude 19:52:52 33° 177° (S) 2,481 8.5 -19.2°
Enters shadow 19:58:06 20° 132° (SE) 3,127 8.6 -19.8°
